Terug naar catalogus

ICEYE-X6

ActiefWetenschapPO
NORAD 46497·PAYLOAD·🇫🇮 Finland

Gelanceerd Sep 28, 2020 vanaf Plesetsk Cosmodrome

Loading…

Volgende Passages (komende 24 uur)

TLE

VersSource: Space-Track

Epoch: Sep 14, 2026, 23:07 UTC

1 46497U 20068M   26257.96378419  .00001456  00000-0  10760-3 0  9998
2 46497  98.1040 255.9857 0007894 139.6900 220.4912 15.04909783326738

Volg ICEYE-X6 in realtime met AllMySat

Download on the App Store